Location: Boncourt
(49.6160°N, 3.9448°E)
Time: 06:00:43
(UTC+00:00)

Cosmos 2074 Rocket - Pass Details

Date: 09 February 2023
Orbit: 967 x 986 km, 82.9° (Epoch: 29 March)

Event Time Altitude Azimuth Distance (km) Brightness Sun altitude
Rises 18:52:13 0° 353° (N) 3,704 7.1 -19.7°
Reaches altitude 10° 18:54:52 10° 359° (N) 2,753 6.4 -20.2°
Maximum altitude 19:00:57 48° 73° (ENE) 1,278 4.2 -21.1°
Enters shadow 19:02:59 36° 120° (ESE) 1,517 4.5 -21.5°
